Regional Weather Roundup
Issued by NWS

Home | Current Version | Previous Version | Graphics & Text | Print | Product List | Glossary On
Versions: 1 2 3 4 5 6 7 8 9 10 11 12 13 14 15 16 17 18 19 20 21 22 23 24 25 26 27 28 29 30 31 32 33 34 35 36 37 38 39 40 41 42 43 44 45 46 47 48 49 50
000
ASUS43 KMPX 242110
RWRMN
WEATHER ROUNDUP FOR MINNESOTA
NATIONAL WEATHER SERVICE TWIN CITIES/CHANHASSEN MN
400 PM CDT FRI OCT 24 2014


NOTE: "FAIR" INDICATES FEW OR NO CLOUDS BELOW 12,000 FEET WITH NO
SIGNIFICANT WEATHER AND/OR OBSTRUCTIONS TO VISIBILITY. N/A MEANS
CURRENT SKY AND/OR WEATHER CONDITIONS ARE NOT AVAILABLE.

MNZ060>063-068>070-242200-
   Twin Cities Metro

CITY           SKY/WX    TMP DP  RH WIND       PRES   REMARKS
TWIN CITIES    PTSUNNY   66  54  65 SW6       29.83R
ST PAUL        FAIR      64  55  72 SW7       29.84R
CRYSTAL        MOSUNNY   68  53  58 SW6       29.82R
LAKEVILLE      PTSUNNY   63  54  72 SW5       29.84R
EDEN PRAIRIE   PTSUNNY   68  54  60 SW8       29.82R
SOUTH ST PAUL  MOSUNNY   65  55  70 S7        29.84R
LAKE ELMO      CLOUDY    63  55  77 S6        29.84S
$$
MNZ001>005-007-008-013>017-022>024-027-028-242200-
   Northwest Minnesota

CITY           SKY/WX    TMP DP  RH WIND       PRES   REMARKS
BEMIDJI        SUNNY     71  40  32 W17       29.74S
HALLOCK        SUNNY     73  34  23 W24G31    29.68R
ROSEAU         PTSUNNY   72  45  37 W14G26    29.65S
WARROAD        PTSUNNY   70  48  46 W9        29.64F
THIEF RVR FALL SUNNY    N/A N/A N/A W22G31    29.71S
CROOKSTON      SUNNY     73  41  31 W22       29.74R
FOSSTON        SUNNY     72  43  35 SW17      29.75S
DETROIT LAKES  SUNNY     68  41  37 W7        29.81R
MOORHEAD       SUNNY     77  28  16 W15       29.78S
PARK RAPIDS    SUNNY     71  38  29 W15       29.77F
MAHNOMEN       FAIR      69  42  37 W16       29.77S
$$
MNZ006-009>011-018-025>026-242200-
   North Central Minnesota

CITY           SKY/WX    TMP DP  RH WIND       PRES   REMARKS
BAUDETTE       PTSUNNY   72  41  32 W8G21     29.64F
FLAG ISLAND    CLOUDY    66  43  42 SW20G28   29.60F
INTL FALLS     CLOUDY    70  40  33 SW13G21   29.66F
WASKISH        MOSUNNY   68  43  40 SW16      29.69F
BIG FORK       MOSUNNY   72  41  33 SW12      29.71F
LONGVILLE      SUNNY     72  39  30 SW7       29.76S
GRAND RAPIDS   SUNNY     70  39  32 SW9       29.74F
CRANE LAKE     PTSUNNY   68  39  34 S8G16     29.69F
ORR            PTSUNNY   72  36  26 W12       29.67F
COOK           PTSUNNY   70  39  32 SW15G22   29.71S
WALKER         FAIR      71  37  28 W14G21    29.75S
$$
MNZ012-019>021-037-242200-
   Northeast Minnesota

CITY           SKY/WX    TMP DP  RH WIND       PRES   REMARKS
DULUTH         MOSUNNY   68  50  52 SW13      29.76S
ELY            PTSUNNY   70  41  35 SW8       29.71F
HIBBING        SUNNY     71  40  32 W9        29.73F
EVELETH        MOSUNNY   70  41  35 SW13G21   29.74F
DULUTH HARBOR  SUNNY     70  54  56 W14       29.76R
TWO HARBORS    SUNNY     72  43  35 SW10      29.73S
SILVER BAY     SUNNY     70  52  52 S10       29.72S
GRAND MARAIS     N/A     50  47  89 CALM      29.74F
G MARAIS ARPRT MOSUNNY   55  45  67 S7        29.75S
$$
MNZ029>031-032-039>041-046>048-054>057-064-242200-
   West Central Minnesota

CITY           SKY/WX    TMP DP  RH WIND       PRES   REMARKS
FERGUS FALLS   MOSUNNY   73  36  25 W10       29.81S
WHEATON        MOSUNNY   72  41  33 W9        29.84R
MORRIS         MOSUNNY   75  43  31 W14       29.82S
ALEXANDRIA     MOSUNNY   72  42  34 W13       29.84R
ELBOW LAKE     FAIR      73  41  31 W15       29.82S
WADENA         SUNNY     68  43  40 W12       29.80R
GLENWOOD       PTSUNNY   72  43  35 W10       29.84R
APPLETON       MOSUNNY   77  37  24 W5        29.83R
BENSON         MOSUNNY   75  41  29 NW7       29.83S
ORTONVILLE     MOSUNNY   75  37  25 NW10      29.84R
MADISON        MOSUNNY   81  36  19 NW14      29.84R
WILLMAR          N/A     73  37  27 W9        29.85R
$$
MNZ033>034-036-042>043-049>051-058-059-242200-
   Central Minnesota

CITY           SKY/WX    TMP DP  RH WIND       PRES   REMARKS
ST CLOUD       MOSUNNY   70  50  49 SW7       29.82S
SAUK CENTRE    FAIR      71  42  34 W10       29.82S
PAYNESVILLE    PTSUNNY   69  40  34 SW8       29.83S
AITKIN         SUNNY     72  43  35 SW9       29.77S
PINE RIVER     SUNNY     72  45  37 SW9       29.80F
BRAINERD       SUNNY     70  42  36 W13       29.79F
STAPLES        SUNNY     70  36  28 W12G18    29.80R
LONG PRAIRIE   FAIR      68  41  37 SW8       29.82S
LITTLE FALLS   SUNNY     68  41  37 SW6       29.81R
LITCHFIELD     PTSUNNY   72  45  37 W7        29.84R
BUFFALO        MOSUNNY   66  53  61 SW5       29.84S
MAPLE LAKE     PTSUNNY   68  55  62 SW3       29.84R
$$
MNZ037-044-045-052-053-242200-
   East Central Minnesota

CITY           SKY/WX    TMP DP  RH WIND       PRES   REMARKS
PRINCETON      SUNNY     70  54  56 SW7       29.82S
MORA           MOSUNNY   64  52  63 SW6       29.82F
CAMBRIDGE      MOSUNNY   70  54  56 SW6       29.80F
RUSH CITY      MOSUNNY   66  53  61 SW3       29.82S
MOOSE LAKE     SUNNY     68  50  52 S8        29.76F
HINCKLEY       FAIR      66  54  63 CALM      29.81S
CLOQUET        SUNNY     68  48  49 SW8       29.77S
MCGREGOR       SUNNY     68  48  49 SW8       29.78S
$$
MNZ071>073-080-081-089-090-097-098-242200-
   Southwest Minnesota

CITY           SKY/WX    TMP DP  RH WIND       PRES   REMARKS
MONTEVIDEO     MOSUNNY   77  41  27 NW5       29.85R
GRANITE FALLS  MOSUNNY   74  40  28 W7        29.86S
CANBY          SUNNY     76  39  26 W14G21    29.86R
MARSHALL       SUNNY     75  36  23 W9        29.85R
REDWOOD FALLS  MOSUNNY   73  47  39 NW8       29.84R
OLIVIA         MOSUNNY   72  46  40 W7        29.84S
PIPESTONE      SUNNY     73  36  25 NW12      29.89R
WINDOM         MOSUNNY   75  37  25 W12G17    29.86R
WORTHINGTON    MOSUNNY   73  37  27 NW14      29.89R
JACKSON        MOSUNNY   75  37  25 W13       29.87R
TRACY          SUNNY     77  37  23 NW12      29.87R
SLAYTON        MOSUNNY   73  32  22 W9        29.89R
$$
MNZ065>067-074>077-082>085-091>093-242200-
   South Central Minnesota

CITY           SKY/WX    TMP DP  RH WIND       PRES   REMARKS
MANKATO        MOSUNNY   70  52  52 W9        29.85R
NEW ULM        MOSUNNY   70  54  56 W8        29.85R
ST JAMES       MOSUNNY   75  43  31 W9        29.85R
FAIRMONT       MOSUNNY   73  19  13 W7        29.85S
GLENCOE        MOSUNNY   71  56  58 W6        29.83S
FARIBAULT      MOSUNNY   64  55  72 S3        29.85S
OWATONNA       MOSUNNY   64  55  72 SW9       29.84F
WASECA         MOSUNNY   68  50  52 SW8       29.85F
ALBERT LEA     MOSUNNY   66  55  68 SW3       29.85S
$$
MNZ078>079-086>088-094>096-242200-
   Southeast Minnesota

CITY           SKY/WX    TMP DP  RH WIND       PRES   REMARKS
ROCHESTER      CLOUDY    59  55  87 SW6       29.88S
RED WING       CLOUDY    59  55  88 SW3       29.85R
STANTON        PTSUNNY   63  55  77 S6        29.83S
DODGE CENTER   CLOUDY    61  55  82 SW9       29.86S
WINONA         CLOUDY    61  55  82 SW7       29.87S
AUSTIN         CLOUDY    57  57 100 S5        29.87R FOG
PRESTON        CLOUDY    57  54  90 S7        29.89R
$$
ABBREVIATIONS USED IN REMARKS
   TC - TEMPERATURES IN CELSIUS
  WCI - WIND CHILL INDEX
   HX - HEAT INDEX
  VSB - VISIBILITY
$$



USA.gov is the U.S. government's official web portal to all federal, state and local government web resources and services.